SRD224B EGKK-EGKK

Flight info

Callsign SRD224B
Flight time 0h 29m
Altitude 1000
Route BOGN1X BOGNA GWC GWC1G
Aircraft B350/L-V/N

Departure

Time 2026-04-18 11:11
Airport London Gatwick Airport (EGKK)

Arrival

Time 2026-04-18 11:40
Airport London Gatwick Airport (EGKK)
Time Latitude Longitude Altitude Speed Heading
2026-04-18 10:50 51.14747 -0.17478 201 ft 0 kts 266°
2026-04-18 11:01 51.14748 -0.17456 207 ft 4 kts 266°
2026-04-18 11:01 51.14743 -0.17381 201 ft 6 kts 304°
2026-04-18 11:02 51.14810 -0.17621 203 ft 18 kts 307°
2026-04-18 11:02 51.14874 -0.17678 208 ft 0 kts 346°
2026-04-18 11:10 51.14926 -0.17699 203 ft 36 kts 343°
2026-04-18 11:10 51.14973 -0.17848 204 ft 18 kts 251°
2026-04-18 11:10 51.14926 -0.18176 205 ft 71 kts 258°
2026-04-18 11:11 51.14753 -0.19402 284 ft 142 kts 256°
2026-04-18 11:11 51.14469 -0.21032 817 ft 162 kts 248°
2026-04-18 11:11 51.13530 -0.22011 902 ft 192 kts 169°
2026-04-18 11:11 51.12761 -0.20495 955 ft 184 kts 92°
2026-04-18 11:12 51.13005 -0.18481 940 ft 179 kts 75°
2026-04-18 11:12 51.13316 -0.16611 1080 ft 173 kts 76°
2026-04-18 11:12 51.13603 -0.14794 1185 ft 170 kts 76°
2026-04-18 11:12 51.13914 -0.12961 1233 ft 170 kts 75°
2026-04-18 11:13 51.14226 -0.11153 1357 ft 169 kts 76°
2026-04-18 11:13 51.14521 -0.09330 1392 ft 171 kts 77°
2026-04-18 11:13 51.14804 -0.07466 1413 ft 173 kts 78°
2026-04-18 11:13 51.15091 -0.05619 1483 ft 174 kts 76°
2026-04-18 11:14 51.15399 -0.03725 1439 ft 178 kts 75°
2026-04-18 11:14 51.15758 -0.01835 1409 ft 181 kts 74°
2026-04-18 11:14 51.16089 0.00095 1351 ft 184 kts 76°
2026-04-18 11:14 51.16414 0.02076 1313 ft 184 kts 76°
2026-04-18 11:15 51.16702 0.04062 1296 ft 185 kts 79°
2026-04-18 11:15 51.16936 0.06070 1287 ft 185 kts 81°
2026-04-18 11:15 51.17148 0.08071 1179 ft 188 kts 81°
2026-04-18 11:15 51.17374 0.10108 1243 ft 181 kts 81°
2026-04-18 11:16 51.17546 0.11965 1615 ft 162 kts 84°
2026-04-18 11:16 51.17700 0.13759 1641 ft 168 kts 83°
2026-04-18 11:16 51.17861 0.15657 1597 ft 176 kts 75°
2026-04-18 11:16 51.18585 0.17039 1827 ft 166 kts 18°
2026-04-18 11:17 51.19685 0.16694 1770 ft 172 kts 319°
2026-04-18 11:17 51.20273 0.15193 1951 ft 148 kts 291°
2026-04-18 11:17 51.20623 0.13728 1790 ft 140 kts 294°
2026-04-18 11:17 51.20791 0.12231 1646 ft 142 kts 270°
2026-04-18 11:18 51.20656 0.10544 1315 ft 159 kts 254°
2026-04-18 11:18 51.20289 0.08933 1260 ft 155 kts 242°
2026-04-18 11:18 51.19624 0.07246 1215 ft 201 kts 238°
2026-04-18 11:18 51.18841 0.05362 1233 ft 224 kts 237°
2026-04-18 11:19 51.17984 0.03195 1279 ft 234 kts 240°
2026-04-18 11:19 51.17416 0.01036 1196 ft 195 kts 258°
2026-04-18 11:19 51.17152 -0.00925 1092 ft 169 kts 259°
2026-04-18 11:19 51.16982 -0.02669 974 ft 151 kts 267°
2026-04-18 11:20 51.16870 -0.04238 880 ft 135 kts 259°
2026-04-18 11:20 51.16650 -0.05628 711 ft 126 kts 255°
2026-04-18 11:20 51.16455 -0.06923 706 ft 131 kts 259°
2026-04-18 11:20 51.16243 -0.08512 954 ft 149 kts 259°
2026-04-18 11:21 51.16049 -0.09929 1096 ft 125 kts 259°
2026-04-18 11:21 51.15872 -0.11289 989 ft 130 kts 259°
2026-04-18 11:21 51.15665 -0.12717 796 ft 133 kts 257°
2026-04-18 11:21 51.15466 -0.14146 635 ft 130 kts 260°
2026-04-18 11:22 51.15287 -0.15553 466 ft 130 kts 258°
2026-04-18 11:22 51.15093 -0.16952 286 ft 130 kts 259°
2026-04-18 11:22 51.14906 -0.18352 248 ft 131 kts 258°
2026-04-18 11:22 51.14668 -0.20004 591 ft 163 kts 258°
2026-04-18 11:23 51.14370 -0.21847 1096 ft 181 kts 246°
2026-04-18 11:23 51.13309 -0.22938 1212 ft 212 kts 171°
2026-04-18 11:23 51.12395 -0.21156 1049 ft 238 kts 92°
2026-04-18 11:23 51.12735 -0.18555 1205 ft 239 kts 73°
2026-04-18 11:24 51.13215 -0.16022 1420 ft 240 kts 74°
2026-04-18 11:24 51.13529 -0.14334 1565 ft 240 kts 75°
2026-04-18 11:24 51.14108 -0.10856 1580 ft 251 kts 76°
2026-04-18 11:24 51.14416 -0.09041 1628 ft 251 kts 76°
2026-04-18 11:25 51.14829 -0.06348 1710 ft 251 kts 78°
2026-04-18 11:25 51.15364 -0.02740 1764 ft 253 kts 77°
2026-04-18 11:25 51.15745 0.00114 1233 ft 270 kts 80°
2026-04-18 11:25 51.15946 0.01950 1081 ft 239 kts 82°
2026-04-18 11:26 51.16352 0.04282 911 ft 205 kts 51°
2026-04-18 11:26 51.17542 0.04790 854 ft 183 kts 331°
2026-04-18 11:26 51.17938 0.03151 877 ft 163 kts 256°
2026-04-18 11:26 51.17602 0.01303 980 ft 188 kts 256°
2026-04-18 11:27 51.17297 -0.00673 1064 ft 169 kts 259°
2026-04-18 11:27 51.17097 -0.02372 1076 ft 136 kts 259°
2026-04-18 11:27 51.16902 -0.03802 1073 ft 138 kts 258°
2026-04-18 11:27 51.16673 -0.05339 1003 ft 147 kts 258°
2026-04-18 11:28 51.16442 -0.06941 942 ft 151 kts 258°
2026-04-18 11:28 51.16217 -0.08605 849 ft 156 kts 259°
2026-04-18 11:28 51.16001 -0.10301 776 ft 157 kts 259°
2026-04-18 11:28 51.15771 -0.12013 678 ft 164 kts 259°
2026-04-18 11:29 51.15491 -0.13864 1172 ft 177 kts 258°
2026-04-18 11:29 51.15209 -0.15815 1641 ft 194 kts 257°
2026-04-18 11:29 51.14571 -0.17807 1881 ft 213 kts 223°
2026-04-18 11:29 51.13131 -0.18048 1806 ft 236 kts 148°
2026-04-18 11:30 51.12423 -0.15729 1795 ft 245 kts 89°
2026-04-18 11:30 51.12858 -0.13123 2041 ft 243 kts 70°
2026-04-18 11:30 51.13492 -0.10675 2382 ft 237 kts 68°
2026-04-18 11:30 51.14161 -0.08243 2374 ft 248 kts 66°
2026-04-18 11:31 51.14874 -0.05639 1672 ft 252 kts 69°
2026-04-18 11:31 51.15420 -0.03134 1017 ft 230 kts 76°
2026-04-18 11:31 51.15753 -0.00818 913 ft 192 kts 79°
2026-04-18 11:31 51.15991 0.01060 1004 ft 156 kts 78°
2026-04-18 11:32 51.15964 0.02637 1073 ft 143 kts 124°
2026-04-18 11:32 51.15145 0.03267 1100 ft 138 kts 192°
2026-04-18 11:32 51.14502 0.02305 1158 ft 133 kts 256°
2026-04-18 11:32 51.14603 0.00905 1184 ft 132 kts 313°
2026-04-18 11:33 51.15447 0.00587 1208 ft 135 kts 26°
2026-04-18 11:33 51.15929 0.01783 1195 ft 137 kts 96°
2026-04-18 11:33 51.15391 0.02921 1208 ft 136 kts 166°
2026-04-18 11:33 51.14536 0.02530 1207 ft 135 kts 232°
2026-04-18 11:34 51.14462 0.01141 1208 ft 135 kts 305°
2026-04-18 11:34 51.15289 0.00611 1217 ft 138 kts 15°
2026-04-18 11:34 51.15900 0.01677 1228 ft 139 kts 85°
2026-04-18 11:34 51.15495 0.02966 1240 ft 138 kts 155°
2026-04-18 11:35 51.14612 0.02838 1225 ft 137 kts 223°
2026-04-18 11:35 51.14376 0.01466 1217 ft 138 kts 292°
2026-04-18 11:35 51.15116 0.00629 1215 ft 140 kts
2026-04-18 11:35 51.15913 0.01416 1196 ft 143 kts 62°
2026-04-18 11:36 51.15918 0.02917 1196 ft 142 kts 127°
2026-04-18 11:36 51.15068 0.03497 1215 ft 140 kts 195°
2026-04-18 11:36 51.14557 0.02321 1359 ft 161 kts 294°
2026-04-18 11:36 51.15524 0.01309 1620 ft 174 kts 338°
2026-04-18 11:37 51.16697 0.00566 1633 ft 181 kts 330°
2026-04-18 11:37 51.17442 -0.00929 1705 ft 187 kts 280°
2026-04-18 11:37 51.17086 -0.03016 1356 ft 204 kts 246°
2026-04-18 11:37 51.16733 -0.05021 1168 ft 175 kts 261°
2026-04-18 11:38 51.16498 -0.06768 1068 ft 150 kts 258°
2026-04-18 11:38 51.16310 -0.08167 1066 ft 114 kts 260°
2026-04-18 11:38 51.16136 -0.09389 889 ft 117 kts 258°
2026-04-18 11:38 51.15966 -0.10674 775 ft 121 kts 259°
2026-04-18 11:39 51.15771 -0.11984 680 ft 121 kts 258°
2026-04-18 11:39 51.15609 -0.13241 672 ft 116 kts 259°
2026-04-18 11:39 51.15410 -0.14652 519 ft 130 kts 259°
2026-04-18 11:39 51.15239 -0.15961 464 ft 116 kts 259°
2026-04-18 11:40 51.15068 -0.17195 211 ft 106 kts 258°
2026-04-18 11:40 51.14990 -0.17785 204 ft 5 kts 255°
2026-04-18 11:40 51.14947 -0.18022 202 ft 29 kts 259°
2026-04-18 11:40 51.14904 -0.18347 200 ft 30 kts 258°
2026-04-18 11:41 51.14860 -0.18676 199 ft 30 kts 258°
2026-04-18 11:41 51.14816 -0.19000 202 ft 29 kts 258°
2026-04-18 11:41 51.14831 -0.19327 211 ft 31 kts 286°
2026-04-18 11:41 51.14878 -0.19502 202 ft 0 kts 316°
2026-04-18 11:42 51.14929 -0.19510 209 ft 21 kts 24°
2026-04-18 11:42 51.14973 -0.19281 209 ft 21 kts 58°
2026-04-18 11:43 51.15024 -0.19245 201 ft 0 kts 351°
2026-04-18 11:45 51.15070 -0.19132 201 ft 20 kts 81°
2026-04-18 11:45 51.15102 -0.18887 206 ft 24 kts 77°
2026-04-18 11:45 51.15139 -0.18609 200 ft 26 kts 78°
2026-04-18 11:46 51.15183 -0.18316 200 ft 28 kts 75°
2026-04-18 11:46 51.15221 -0.18009 207 ft 29 kts 77°
2026-04-18 11:46 51.15261 -0.17698 207 ft 29 kts 77°
2026-04-18 11:46 51.15303 -0.17403 208 ft 24 kts 64°
2026-04-18 11:47 51.15379 -0.17220 207 ft 21 kts 75°
2026-04-18 11:47 51.15424 -0.16980 201 ft 24 kts 79°
2026-04-18 11:47 51.15444 -0.16706 206 ft 26 kts 95°
2026-04-18 11:47 51.15448 -0.16498 201 ft 10 kts 136°
2026-04-18 11:48 51.15358 -0.16481 207 ft 16 kts 168°
2026-04-18 11:48 51.15263 -0.16462 211 ft 0 kts 168°
2026-04-18 11:48 51.15176 -0.16429 201 ft 31 kts 167°
2026-04-18 11:49 51.14994 -0.16370 206 ft 17 kts 180°
2026-04-18 11:49 51.14931 -0.16539 201 ft 22 kts 257°
2026-04-18 11:49 51.14897 -0.16791 207 ft 25 kts 258°
2026-04-18 11:49 51.14859 -0.17074 201 ft 27 kts 257°
2026-04-18 11:50 51.14821 -0.17292 206 ft 17 kts 220°
2026-04-18 11:50 51.14776 -0.17300 201 ft 13 kts 188°
2026-04-18 11:50 51.14750 -0.17393 201 ft 13 kts 266°
2026-04-18 11:50 51.14747 -0.17462 201 ft 0 kts 265°